[[{"header":{"parameterUnit":"m.s-1","parameterCategory":2,"la1":30.2991,"la2":30.254,"lo1":-89.0895,"lo2":-89.0444,"dy":0.0017,"dx":0.0017,"nx":28,"ny":28,"refTime":"2024-06-21T03:00:00:Z","depth":"0","parameterNumber":2,"parameterNumberName":"U-component_of_CURRENTS"},"data":[0,0,0,0,0,0,0,0,0,0,0,0,0,0,0,0,0,0,0,0,0,0,0,0,0,0,0,0,0,0,0,0,0,0,0,0,0,0,0,0,0,0,0,0,0,0,0,0,0,0,0,0,0,0,0,0,0,0,0.3356,0.3357,0,0.3397,0.3397,0.3397,0.3385,0.3385,0.3384,0.3384,0.3365,0.3365,0.3365,0,0,0,0,0,0,0,0,0,0,0,0,0,0.3285,0.3285,0.3356,0.3357,0.3358,0.3397,0.3397,0.3397,0.3385,0.3385,0.3384,0.3384,0.3365,0.3365,0.3365,0,0,0,0,0,0,0,0,0,0,0,0,0,0.3314,0.3286,0.3356,0.3361,0.3363,0.3397,0.3397,0.3397,0.3385,0.3385,0.3384,0.3384,0.3365,0.3365,0.3365,0.3371,0,0,0.3363,0.3363,0,0,0,0,0,0,0,0,0.3312,0.3316,0.336,0.3361,0.3363,0.3391,0.3365,0.3387,0.3385,0.337,0.3384,0.3384,0.3372,0.3371,0.3372,0.337,0.337,0.3363,0.3363,0.3363,0.3363,0,0,0,0,0,0,0,0.331,0.3314,0.3366,0.3361,0.3363,0.3368,0.3371,0.3369,0.3368,0.3372,0.3372,0.3386,0.3372,0.3373,0.3372,0.3369,0.3363,0.3363,0.3363,0.3363,0.3436,0.3438,0,0,0,0,0,0,0.3317,0.3312,0.3365,0.3368,0.3343,0.337,0.3373,0.3377,0.3369,0.337,0.3387,0.3386,0.3374,0.3372,0.3371,0.3432,0.3363,0.3363,0.3363,0.3434,0.3437,0.3439,0,0,0,0,0,0,0.3315,0.3321,0.3364,0.3346,0.3353,0.3372,0.3377,0.3378,0.3388,0.3382,0.338,0.3397,0.3373,0.3371,0.3392,0.3429,0.3363,0.3362,0.3431,0.3435,0.3438,0.352,0,0,0,0,0,0,0.3312,0.3319,0.3323,0.3346,0.3354,0.3393,0.3378,0.338,0.34,0.3399,0.339,0.3387,0.3373,0.3392,0.3391,0.3428,0.3362,0.3429,0.3433,0.3437,0.3515,0.3526,0.3536,0,0,0,0,0,0.331,0.3316,0.3322,0.3329,0.3359,0.3395,0.3399,0.3407,0.3401,0.3412,0.3414,0.3388,0.3417,0.3394,0.3392,0.3429,0.3427,0.3432,0.3436,0.351,0.3524,0.3535,0,0,0,0,0,0,0.3277,0.3317,0.3324,0.3339,0.3372,0.3395,0.3405,0.3416,0.3426,0.3422,0.3409,0.3408,0.3446,0.3427,0.3401,0.3465,0.342,0.3425,0.3477,0.349,0.35,0.3519,0.3362,0,0,0,0,0,0.3277,0.3294,0.3333,0.3345,0.3362,0.3386,0.3401,0.3413,0.343,0.3433,0.3433,0.3439,0.3464,0.3467,0.3478,0.3503,0.3522,0.3529,0.3539,0.3548,0.3565,0.3641,0.366,0.3455,0.3455,0.3455,0,0,0.3265,0.3292,0.3299,0.3341,0.336,0.3399,0.3392,0.3422,0.3459,0.3429,0.3466,0.3475,0.3481,0.3521,0.3535,0.3507,0.3617,0.3554,0.3561,0.3574,0.3648,0.3668,0.3686,0.3458,0.3458,0.3457,0,0,0.327,0.3278,0.3304,0.3336,0.3384,0.3406,0.3421,0.3457,0.3475,0.3516,0.3518,0.3554,0.3567,0.3594,0.3606,0.3679,0.3675,0.3681,0.374,0.3815,0.3832,0.3848,0.3899,0.3919,0.3679,0.3679,0.3679,0,0.3258,0.3296,0.3317,0.3359,0.3394,0.3415,0.3462,0.3486,0.3527,0.3557,0.3536,0.3613,0.3609,0.3688,0.3716,0.3704,0.3739,0.369,0.3829,0.3845,0.386,0.3908,0.3929,0.3684,0.3683,0.3683,0.3682,0,0.3292,0.3326,0.3343,0.3407,0.3446,0.3483,0.3535,0.3573,0.3595,0.3625,0.3702,0.3713,0.3762,0.3771,0.3764,0.3873,0.3863,0.3839,0.3797,0.3886,0.393,0.3951,0.369,0.3688,0.3687,0.3686,0,0,0.3256,0.3351,0.3357,0.3394,0.3476,0.3506,0.3585,0.3663,0.372,0.3752,0.3833,0.3881,0.3891,0.3909,0.3914,0.3972,0.41,0.3955,0.3956,0.4005,0.4265,0.4221,0.4238,0.4107,0.4111,0.4114,0.4254,0,0.3278,0.3359,0.3413,0.3485,0.3527,0.359,0.3659,0.3731,0.3793,0.3869,0.3907,0.3976,0.3943,0.398,0.4038,0.4094,0.4157,0.4064,0.4172,0.4175,0.4126,0.4261,0.4176,0.4291,0.4273,0.4277,0.4279,0,0.3297,0.335,0.3433,0.3528,0.3553,0.3602,0.3724,0.3789,0.3907,0.397,0.4054,0.4085,0.4188,0.4138,0.4283,0.423,0.4263,0.4289,0.4295,0.4241,0.417,0.4201,0.4328,0.4249,0.4309,0.4307,0.4305,0,0.3255,0.3359,0.3424,0.3456,0.3572,0.3622,0.3679,0.3806,0.3876,0.4036,0.4104,0.4227,0.4277,0.4367,0.4407,0.4373,0.4551,0.4504,0.4493,0.4489,0.4431,0.4415,0.4494,0.4616,0.4616,0.4615,0.4615,0,0.3258,0.3296,0.34,0.3427,0.349,0.3585,0.3675,0.3771,0.3917,0.4003,0.413,0.4229,0.434,0.4432,0.4476,0.4554,0.461,0.4546,0.4544,0.4455,0.444,0.4376,0.4323,0.4621,0.462,0.4619,0.4618,0,0.3198,0.3276,0.3329,0.3438,0.3469,0.3501,0.363,0.371,0.386,0.3988,0.4043,0.4248,0.4404,0.4488,0.4637,0.4623,0.4603,0.4712,0.4588,0.4569,0.4475,0.4429,0.4299,0.4164,0.4758,0.4758,0.4758,0,0.3176,0.3204,0.3294,0.3325,0.3368,0.3436,0.3501,0.366,0.3761,0.3991,0.4055,0.4247,0.4396,0.4602,0.4665,0.4772,0.4603,0.4696,0.4613,0.4501,0.4449,0.4214,0.4091,0.4572,0.4571,0.4569,0.4568,0,0.3114,0.3145,0.3186,0.3241,0.3298,0.3361,0.3461,0.3517,0.3716,0.3851,0.4043,0.4185,0.4429,0.454,0.4665,0.4704,0.4499,0.4672,0.4608,0.4371,0.4071,0.3928,0.4429,0.4558,0.4559,0.456,0.456,0.4561,0.3039,0.3045,0.3102,0.3143,0.32,0.3246,0.3256,0.3404,0.3518,0.3678,0.3908,0.4081,0.4354,0.4565,0.4556,0.452,0.4435,0.4448,0.4424,0.421,0.401,0.4476,0.4558,0.4559,0.456,0.4561,0.4561,0,0.2934,0.2966,0.3007,0.304,0.305,0.3127,0.3209,0.3215,0.3292,0.3536,0.3705,0.3982,0.4142,0.4298,0.4434,0.4328,0.4069,0.4215,0.3901,0.3808,0.4313,0.4238,0.419,0.419,0.419,0.419,0.4191,0.4191,0.2876,0.2872,0.2899,0.287,0.2899,0.2864,0.2871,0.2916,0.3054,0.3228,0.3412,0.3636,0.4021,0.4292,0.4276,0.4167,0.3833,0.368,0.3596,0.403,0.4048,0.4066,0.3985,0.3886,0.3885,0.2946,0.2939,0.2934]},{"header":{"parameterUnit":"m.s-1","parameterCategory":2,"la1":30.2991,"la2":30.254,"lo1":-89.0895,"lo2":-89.0444,"dy":0.0017,"dx":0.0017,"nx":28,"ny":28,"refTime":"2024-06-21T03:00:00:Z","depth":"0","parameterNumber":3,"parameterNumberName":"V-component_of_CURRENTS"},"data":[0,0,0,0,0,0,0,0,0,0,0,0,0,0,0,0,0,0,0,0,0,0,0,0,0,0,0,0,0,0,0,0,0,0,0,0,0,0,0,0,0,0,0,0,0,0,0,0,0,0,0,0,0,0,0,0,0,0,-0.0218,-0.0218,0,-0.0273,-0.0274,-0.0275,-0.0307,-0.0307,-0.0307,-0.0307,-0.0385,-0.0387,-0.0389,0,0,0,0,0,0,0,0,0,0,0,0,0,-0.0192,-0.0192,-0.0218,-0.0218,-0.0219,-0.0273,-0.0274,-0.0275,-0.0307,-0.0307,-0.0307,-0.0307,-0.0385,-0.0387,-0.0389,0,0,0,0,0,0,0,0,0,0,0,0,0,-0.0222,-0.0192,-0.0218,-0.0241,-0.0244,-0.0273,-0.0274,-0.0275,-0.0307,-0.0307,-0.0307,-0.0308,-0.0384,-0.0387,-0.039,-0.0406,0,0,-0.0399,-0.04,0,0,0,0,0,0,0,0,-0.022,-0.0223,-0.0237,-0.024,-0.0243,-0.0283,-0.0294,-0.032,-0.0307,-0.0284,-0.0307,-0.0308,-0.0353,-0.0358,-0.0369,-0.041,-0.0413,-0.0399,-0.0401,-0.0402,-0.0403,0,0,0,0,0,0,0,-0.0218,-0.0221,-0.024,-0.0238,-0.0241,-0.0267,-0.0271,-0.0299,-0.0318,-0.0286,-0.0288,-0.0293,-0.0354,-0.0366,-0.0371,-0.0414,-0.0399,-0.0402,-0.0404,-0.0405,-0.0473,-0.0473,0,0,0,0,0,0,-0.0207,-0.0218,-0.0239,-0.0242,-0.0231,-0.0267,-0.0272,-0.027,-0.0317,-0.0324,-0.0293,-0.0295,-0.0361,-0.0368,-0.0374,-0.0379,-0.0402,-0.0405,-0.0407,-0.0473,-0.0473,-0.0473,0,0,0,0,0,0,-0.0206,-0.0208,-0.0236,-0.0232,-0.0237,-0.0267,-0.0266,-0.0271,-0.0279,-0.0322,-0.033,-0.0294,-0.0361,-0.037,-0.039,-0.0383,-0.0407,-0.0409,-0.0473,-0.0473,-0.0473,-0.04,0,0,0,0,0,0,-0.0205,-0.0207,-0.0203,-0.023,-0.0237,-0.024,-0.0266,-0.0272,-0.0282,-0.0284,-0.0326,-0.0334,-0.0362,-0.0386,-0.0393,-0.0387,-0.0412,-0.0473,-0.0473,-0.0473,-0.0402,-0.0397,-0.0393,0,0,0,0,0,-0.0203,-0.019,-0.0202,-0.0205,-0.023,-0.024,-0.0245,-0.0268,-0.0282,-0.0277,-0.0308,-0.0332,-0.0392,-0.0388,-0.0397,-0.0392,-0.0473,-0.0473,-0.0473,-0.0404,-0.0398,-0.0393,0,0,0,0,0,0,-0.0172,-0.0193,-0.0207,-0.0199,-0.0215,-0.0245,-0.0244,-0.0262,-0.0284,-0.0287,-0.0329,-0.0339,-0.0356,-0.0386,-0.038,-0.0413,-0.0438,-0.044,-0.0382,-0.0377,-0.0373,-0.0334,-0.0414,0,0,0,0,0,-0.0164,-0.0162,-0.0186,-0.018,-0.0185,-0.0215,-0.0224,-0.0238,-0.0261,-0.0271,-0.03,-0.0335,-0.0365,-0.0378,-0.0409,-0.0423,-0.0442,-0.0429,-0.0424,-0.042,-0.0395,-0.0431,-0.0426,-0.0473,-0.0473,-0.0473,0,0,-0.0151,-0.0162,-0.0162,-0.0174,-0.019,-0.018,-0.022,-0.0224,-0.0215,-0.0276,-0.0275,-0.032,-0.0366,-0.0382,-0.0393,-0.0403,-0.0416,-0.042,-0.0415,-0.0393,-0.043,-0.0425,-0.0421,-0.0473,-0.0473,-0.0473,0,0,-0.0116,-0.0132,-0.0117,-0.0121,-0.0136,-0.0154,-0.0151,-0.0177,-0.0188,-0.0201,-0.0242,-0.0276,-0.0321,-0.0348,-0.037,-0.0359,-0.0392,-0.0376,-0.0318,-0.0352,-0.0348,-0.0345,-0.0354,-0.0352,-0.0372,-0.0371,-0.0371,0,-0.0096,-0.0079,-0.0113,-0.0093,-0.0084,-0.0135,-0.0105,-0.0125,-0.0154,-0.0154,-0.019,-0.0254,-0.0303,-0.0313,-0.0313,-0.0347,-0.0361,-0.0332,-0.0344,-0.0341,-0.0339,-0.0349,-0.0348,-0.0368,-0.0368,-0.0369,-0.0369,0,-0.0045,-0.0031,-0.0019,-0.0009,-0.0007,0.0008,-0.0017,-0.002,-0.0051,-0.0074,-0.0098,-0.0172,-0.0203,-0.0237,-0.0273,-0.0279,-0.0291,-0.0335,-0.0351,-0.0329,-0.0342,-0.0342,-0.0363,-0.0364,-0.0365,-0.0366,0,0,0.0015,0.0017,0.0026,0.0053,0.0043,0.006,0.0069,0.0072,0.0098,0.0031,0.0053,-0.0034,-0.0078,-0.0105,-0.0166,-0.0204,-0.0215,-0.0252,-0.0256,-0.0246,-0.0266,-0.0289,-0.0292,-0.0259,-0.0259,-0.0259,-0.0277,0,0.0074,0.0132,0.0112,0.0178,0.0213,0.0181,0.02,0.0194,0.0172,0.0177,0.0085,0.007,-0.0027,-0.0042,-0.0095,-0.0176,-0.0212,-0.0204,-0.0299,-0.0301,-0.0314,-0.0292,-0.026,-0.0275,-0.0277,-0.0277,-0.0277,0,0.0147,0.0177,0.0244,0.0289,0.0302,0.0323,0.0368,0.0384,0.0363,0.0345,0.0302,0.023,0.0172,0.0074,-0.0047,-0.0034,-0.0135,-0.0214,-0.0218,-0.026,-0.0325,-0.0301,-0.0275,-0.05,-0.0277,-0.0277,-0.0277,0,0.0234,0.0282,0.034,0.0357,0.0385,0.0411,0.043,0.0434,0.048,0.0459,0.0477,0.0379,0.035,0.0203,0.0029,-0.0004,-0.0103,-0.0174,-0.0289,-0.0291,-0.0291,-0.0294,-0.048,-0.0263,-0.0263,-0.0263,-0.0262,0,0.0319,0.0376,0.0384,0.0425,0.0505,0.05,0.0582,0.059,0.0626,0.0698,0.0573,0.0605,0.0379,0.0283,0.0098,-0.0074,-0.0052,-0.0258,-0.0296,-0.0266,-0.0266,-0.0485,-0.0608,-0.0263,-0.0263,-0.0263,-0.0263,0,0.0404,0.0409,0.0489,0.0528,0.0546,0.061,0.0688,0.0761,0.077,0.0864,0.0863,0.0797,0.0675,0.0444,0.0229,0.004,-0.0266,-0.022,-0.0155,-0.0187,-0.0521,-0.0639,-0.0835,-0.0942,-0.0342,-0.0343,-0.0343,0,0.0451,0.0495,0.0565,0.062,0.0637,0.0717,0.0784,0.083,0.0923,0.099,0.1058,0.097,0.0948,0.063,0.0272,-0.0037,-0.0266,-0.023,-0.0308,-0.0519,-0.0679,-0.0773,-0.0856,-0.0274,-0.0274,-0.0273,-0.0273,0,0.0541,0.0556,0.0612,0.0718,0.0798,0.0898,0.1001,0.1098,0.1171,0.1266,0.1383,0.1378,0.1066,0.0774,0.0321,0.0089,-0.0384,-0.024,-0.048,-0.065,-0.074,-0.0867,-0.0273,-0.0273,-0.0273,-0.0273,-0.0273,-0.0273,0.0602,0.0654,0.0721,0.0823,0.0928,0.107,0.1174,0.131,0.1485,0.1654,0.164,0.1696,0.1238,0.0634,0.0265,-0.0387,-0.0413,-0.0584,-0.0706,-0.0779,-0.09,-0.0295,-0.0337,-0.0337,-0.0337,-0.0338,-0.0338,0,0.0675,0.0727,0.0826,0.0955,0.1086,0.1123,0.1317,0.1441,0.1663,0.1844,0.1964,0.1816,0.1236,0.0618,-0.0265,-0.0755,-0.0941,-0.1022,-0.1157,-0.1221,-0.0691,-0.0708,-0.0806,-0.0806,-0.0806,-0.0805,-0.0805,-0.0805,0.072,0.0811,0.0853,0.1058,0.1161,0.1345,0.1463,0.1666,0.1835,0.2081,0.2172,0.2193,0.1767,0.0163,-0.0957,-0.1226,-0.1563,-0.1634,-0.1836,-0.1491,-0.146,-0.1431,-0.1478,-0.1736,-0.1737,-0.2297,-0.2303,-0.2308]}],[{"header":{"parameterUnit":"m.s-1","parameterCategory":2,"la1":30.2991,"la2":30.254,"lo1":-89.0895,"lo2":-89.0444,"dy":0.0017,"dx":0.0017,"nx":28,"ny":28,"refTime":"2024-06-21T03:00:00:Z","depth":"2","parameterNumber":2,"parameterNumberName":"U-component_of_CURRENTS"},"data":[0,0,0,0,0,0,0,0,0,0,0,0,0,0,0,0,0,0,0,0,0,0,0,0,0,0,0,0,0,0,0,0,0,0,0,0,0,0,0,0,0,0,0,0,0,0,0,0,0,0,0,0,0,0,0,0,0,0,0.3153,0.3155,0,0.3303,0.3305,0.3307,0.3282,0.3279,0.3277,0.3274,0.3334,0.3338,0.3343,0,0,0,0,0,0,0,0,0,0,0,0,0,0.3003,0.3005,0.3153,0.3155,0.3157,0.3302,0.3305,0.3307,0.3283,0.3279,0.3276,0.3273,0.3333,0.3338,0.3343,0,0,0,0,0,0,0,0,0,0,0,0,0,0.3104,0.3006,0.3153,0.316,0.3162,0.3302,0.3305,0.3308,0.3283,0.3279,0.3275,0.3271,0.3331,0.3337,0.3344,0.3466,0,0,0.3363,0.3366,0,0,0,0,0,0,0,0,0.3098,0.3109,0.3158,0.316,0.3163,0.3267,0.3274,0.3356,0.3284,0.324,0.3274,0.3269,0.3305,0.3314,0.3356,0.3469,0.3472,0.3363,0.3367,0.337,0.3372,0,0,0,0,0,0,0,0.3091,0.3104,0.3215,0.316,0.3163,0.321,0.3218,0.3291,0.3294,0.3243,0.3241,0.3256,0.3306,0.335,0.3356,0.3473,0.3363,0.3369,0.3373,0.3375,0.3572,0.3574,0,0,0,0,0,0,0.3065,0.3097,0.321,0.3219,0.3117,0.3215,0.3225,0.324,0.3296,0.33,0.3259,0.3254,0.3341,0.3349,0.3358,0.3425,0.337,0.3376,0.338,0.3571,0.3572,0.3574,0,0,0,0,0,0,0.3061,0.3074,0.3204,0.3159,0.3178,0.322,0.3239,0.3245,0.3273,0.3308,0.331,0.3277,0.3338,0.3349,0.3378,0.3429,0.3379,0.3385,0.3569,0.3571,0.3573,0.361,0,0,0,0,0,0,0.3056,0.3072,0.308,0.3158,0.318,0.324,0.3243,0.3251,0.3288,0.3282,0.3326,0.3328,0.3336,0.3368,0.3384,0.3437,0.3389,0.3567,0.357,0.3573,0.3606,0.3613,0.3618,0,0,0,0,0,0.3051,0.3061,0.308,0.3094,0.3188,0.324,0.3255,0.3274,0.3292,0.3289,0.3315,0.3325,0.3397,0.3375,0.3393,0.3448,0.3566,0.3569,0.3572,0.3604,0.3611,0.3618,0,0,0,0,0,0,0.2996,0.3063,0.3083,0.3113,0.3155,0.3233,0.3286,0.3285,0.3319,0.3325,0.3348,0.3352,0.3401,0.3419,0.3394,0.351,0.3485,0.3492,0.3503,0.351,0.3516,0.3488,0.3395,0,0,0,0,0,0.2995,0.3028,0.3084,0.3115,0.3168,0.3238,0.3271,0.3263,0.3305,0.3317,0.3353,0.3397,0.3443,0.3462,0.3504,0.3577,0.3583,0.3623,0.3628,0.3633,0.3621,0.3666,0.3675,0.3585,0.3585,0.3585,0,0,0.299,0.3032,0.3052,0.3108,0.3196,0.3235,0.325,0.33,0.3304,0.3325,0.3383,0.3425,0.3465,0.3527,0.3554,0.354,0.3665,0.3637,0.3641,0.3626,0.367,0.3679,0.3687,0.3587,0.3586,0.3586,0,0,0.3005,0.3056,0.3099,0.313,0.3206,0.3244,0.3251,0.3326,0.3344,0.3382,0.3411,0.3459,0.3542,0.3574,0.3603,0.3671,0.3695,0.3706,0.3718,0.3763,0.377,0.3777,0.3806,0.3815,0.3708,0.3708,0.3708,0,0.2998,0.3043,0.3114,0.3155,0.3193,0.3247,0.3281,0.3317,0.3359,0.3394,0.3384,0.3527,0.356,0.3642,0.3657,0.3686,0.3709,0.3689,0.3769,0.3776,0.3782,0.381,0.3819,0.371,0.371,0.371,0.3709,0,0.3029,0.3065,0.3119,0.3187,0.3225,0.3265,0.3318,0.3361,0.3405,0.3419,0.3505,0.3557,0.363,0.3669,0.3685,0.3769,0.3771,0.3772,0.3748,0.3793,0.382,0.3829,0.3713,0.3712,0.3712,0.3711,0,0,0.3004,0.3117,0.3123,0.3161,0.3235,0.3265,0.3334,0.3397,0.345,0.3481,0.3552,0.3634,0.3668,0.3701,0.3752,0.379,0.3863,0.3803,0.3804,0.3824,0.396,0.3952,0.3961,0.3886,0.3888,0.3889,0.3965,0,0.3017,0.308,0.3123,0.3174,0.324,0.3303,0.3354,0.3396,0.347,0.3544,0.3598,0.3682,0.3678,0.3746,0.3776,0.386,0.3887,0.3841,0.3919,0.3921,0.3902,0.3971,0.3699,0.3744,0.3974,0.3975,0.3977,0,0.3016,0.3063,0.3121,0.32,0.324,0.3256,0.3384,0.3421,0.3528,0.3596,0.3675,0.3725,0.3813,0.3799,0.3905,0.3883,0.3913,0.3949,0.3954,0.3933,0.3929,0.3736,0.3751,0.3991,0.399,0.3989,0.3988,0,0.2964,0.3048,0.3094,0.3114,0.3212,0.3263,0.3322,0.3438,0.3498,0.3647,0.3709,0.3801,0.3874,0.3921,0.3994,0.3967,0.4096,0.4068,0.4072,0.4071,0.3846,0.3823,0.4111,0.4111,0.4111,0.4111,0.4111,0,0.2943,0.2969,0.3075,0.3087,0.3141,0.3231,0.3309,0.3406,0.3535,0.3603,0.3721,0.3806,0.391,0.3992,0.4024,0.409,0.412,0.4083,0.4098,0.3854,0.3832,0.4042,0.4033,0.4114,0.4113,0.4112,0.4112,0,0.2876,0.2942,0.2985,0.3087,0.3119,0.3156,0.328,0.3344,0.3488,0.3597,0.365,0.3826,0.3967,0.4048,0.4168,0.4142,0.4208,0.4212,0.392,0.39,0.4135,0.4127,0.4217,0.4218,0.4218,0.4219,0.4219,0,0.2848,0.2869,0.2953,0.2983,0.3031,0.3106,0.3161,0.3308,0.3397,0.3601,0.3651,0.3835,0.3947,0.4121,0.4171,0.424,0.4257,0.3987,0.3879,0.4144,0.415,0.4141,0.4133,0.3589,0.3585,0.3581,0.3577,0,0.2788,0.2816,0.2858,0.2918,0.2971,0.3022,0.3132,0.3169,0.3348,0.3448,0.3602,0.3709,0.3927,0.3919,0.4044,0.4028,0.3961,0.3911,0.4268,0.3624,0.3564,0.3566,0.3576,0.3542,0.3545,0.3548,0.355,0.3551,0.2745,0.2753,0.2812,0.2856,0.29,0.2934,0.2929,0.305,0.3127,0.3234,0.3434,0.3509,0.3645,0.3722,0.3656,0.3619,0.3877,0.3686,0.3692,0.3704,0.3637,0.3583,0.3551,0.3555,0.3558,0.356,0.3563,0,0.2729,0.2753,0.2757,0.2787,0.2767,0.2852,0.2898,0.2864,0.2884,0.3059,0.3162,0.3016,0.3091,0.3202,0.3134,0.3182,0.3078,0.3021,0.2852,0.2896,0.2933,0.2818,0.2518,0.2514,0.251,0.2506,0,0,0.272,0.271,0.2686,0.2632,0.2667,0.2613,0.2604,0.2562,0.2635,0.2614,0.2659,0.2944,0.3152,0.2778,0.278,0.2636,0.2715,0.2532,0.3394,0.3243,0.3273,0.3374,0.3257,0,0,0,0,0]},{"header":{"parameterUnit":"m.s-1","parameterCategory":2,"la1":30.2991,"la2":30.254,"lo1":-89.0895,"lo2":-89.0444,"dy":0.0017,"dx":0.0017,"nx":28,"ny":28,"refTime":"2024-06-21T03:00:00:Z","depth":"2","parameterNumber":3,"parameterNumberName":"V-component_of_CURRENTS"},"data":[0,0,0,0,0,0,0,0,0,0,0,0,0,0,0,0,0,0,0,0,0,0,0,0,0,0,0,0,0,0,0,0,0,0,0,0,0,0,0,0,0,0,0,0,0,0,0,0,0,0,0,0,0,0,0,0,0,0,-0.0117,-0.0118,0,-0.0218,-0.022,-0.0221,-0.0267,-0.0267,-0.0266,-0.0265,-0.0382,-0.0386,-0.0389,0,0,0,0,0,0,0,0,0,0,0,0,0,-0.0054,-0.0054,-0.0117,-0.0118,-0.0118,-0.0218,-0.022,-0.0221,-0.0267,-0.0266,-0.0266,-0.0265,-0.0381,-0.0385,-0.039,0,0,0,0,0,0,0,0,0,0,0,0,0,-0.0115,-0.0055,-0.0117,-0.0149,-0.0153,-0.0217,-0.022,-0.0222,-0.0267,-0.0266,-0.0266,-0.0265,-0.038,-0.0385,-0.039,-0.0441,0,0,-0.0407,-0.0409,0,0,0,0,0,0,0,0,-0.0111,-0.0118,-0.0144,-0.0147,-0.0151,-0.0224,-0.024,-0.0294,-0.0268,-0.0229,-0.0265,-0.0264,-0.0328,-0.0338,-0.0366,-0.0447,-0.0452,-0.0408,-0.0411,-0.0413,-0.0415,0,0,0,0,0,0,0,-0.0107,-0.0114,-0.0162,-0.0145,-0.0149,-0.0189,-0.0197,-0.0251,-0.0287,-0.0233,-0.0235,-0.0238,-0.0331,-0.0361,-0.0369,-0.0454,-0.0407,-0.0412,-0.0416,-0.0418,-0.0524,-0.0524,0,0,0,0,0,0,-0.0081,-0.011,-0.0159,-0.0165,-0.0123,-0.019,-0.0199,-0.0206,-0.0286,-0.0296,-0.0239,-0.024,-0.0352,-0.0363,-0.0373,-0.038,-0.0413,-0.0418,-0.0421,-0.0525,-0.0524,-0.0524,0,0,0,0,0,0,-0.0079,-0.0084,-0.0155,-0.0135,-0.0146,-0.0191,-0.0199,-0.0208,-0.0228,-0.0289,-0.03,-0.0246,-0.0351,-0.0365,-0.0389,-0.0387,-0.0421,-0.0426,-0.0525,-0.0525,-0.0524,-0.043,0,0,0,0,0,0,-0.0077,-0.0083,-0.008,-0.0133,-0.0146,-0.0164,-0.02,-0.0211,-0.0229,-0.0231,-0.03,-0.0311,-0.0352,-0.038,-0.0394,-0.0395,-0.043,-0.0526,-0.0525,-0.0524,-0.0434,-0.0427,-0.042,0,0,0,0,0,-0.0074,-0.0064,-0.008,-0.0086,-0.0141,-0.0162,-0.0172,-0.0206,-0.023,-0.0225,-0.0265,-0.0308,-0.0385,-0.0384,-0.0401,-0.0403,-0.0526,-0.0525,-0.0524,-0.0437,-0.0428,-0.042,0,0,0,0,0,0,-0.0036,-0.0069,-0.0087,-0.0089,-0.0111,-0.0167,-0.0183,-0.02,-0.0235,-0.0242,-0.0302,-0.0314,-0.0337,-0.0381,-0.0378,-0.043,-0.0465,-0.0467,-0.0393,-0.0385,-0.0378,-0.0341,-0.0435,0,0,0,0,0,-0.0026,-0.0029,-0.0064,-0.0066,-0.0086,-0.0136,-0.0153,-0.0165,-0.0202,-0.0217,-0.0262,-0.0313,-0.0352,-0.0372,-0.0416,-0.0445,-0.0478,-0.0458,-0.0451,-0.0445,-0.0426,-0.0465,-0.0459,-0.052,-0.052,-0.052,0,0,-0.0014,-0.0032,-0.0035,-0.0058,-0.01,-0.0099,-0.0146,-0.0162,-0.0148,-0.0226,-0.0239,-0.0292,-0.0353,-0.0377,-0.0393,-0.041,-0.0446,-0.0444,-0.0438,-0.0422,-0.0463,-0.0457,-0.0452,-0.052,-0.052,-0.052,0,0,0.0014,-0.0015,-0.0009,-0.0018,-0.0047,-0.0073,-0.0068,-0.0114,-0.0128,-0.0141,-0.0192,-0.0227,-0.0299,-0.033,-0.0359,-0.0342,-0.0408,-0.0371,-0.0309,-0.0347,-0.0341,-0.0337,-0.0372,-0.0371,-0.0368,-0.0368,-0.0367,0,0.0031,0.0039,-0.0008,0.0002,0.0003,-0.0053,-0.0033,-0.0055,-0.0088,-0.0095,-0.0125,-0.0218,-0.0272,-0.0293,-0.0286,-0.0325,-0.0358,-0.0334,-0.0336,-0.0332,-0.033,-0.0366,-0.0367,-0.0363,-0.0363,-0.0364,-0.0364,0,0.0069,0.0079,0.0075,0.0072,0.0069,0.0076,0.005,0.0044,0.001,-0.001,-0.0041,-0.0116,-0.0164,-0.0198,-0.0239,-0.025,-0.0284,-0.0321,-0.0351,-0.0318,-0.0359,-0.0361,-0.0356,-0.0358,-0.0359,-0.0361,0,0,0.0101,0.0103,0.0107,0.0125,0.0113,0.0119,0.0131,0.0129,0.0143,0.009,0.0095,0.0017,-0.0033,-0.0067,-0.0134,-0.017,-0.0189,-0.0231,-0.0236,-0.0254,-0.0272,-0.0285,-0.029,-0.0231,-0.0231,-0.0231,-0.0307,0,0.0144,0.0192,0.0182,0.0234,0.0249,0.0222,0.0242,0.0241,0.0215,0.0206,0.0126,0.0099,0.002,-0.0007,-0.0054,-0.0153,-0.0191,-0.0164,-0.031,-0.0314,-0.0322,-0.0292,-0.025,-0.0314,-0.031,-0.0311,-0.0311,0,0.0194,0.0221,0.0277,0.0319,0.0319,0.0347,0.0368,0.0389,0.0364,0.0341,0.0298,0.0228,0.017,0.0091,-0.0043,-0.0025,-0.0132,-0.0215,-0.0221,-0.0264,-0.0332,-0.0349,-0.0319,-0.0316,-0.0316,-0.0315,-0.0315,0,0.0249,0.0295,0.0345,0.036,0.039,0.0411,0.0428,0.0426,0.0459,0.0431,0.0437,0.0344,0.0304,0.0166,-0.0004,-0.0028,-0.0157,-0.0216,-0.0327,-0.033,-0.0336,-0.0339,-0.0306,-0.0306,-0.0306,-0.0306,-0.0306,0,0.0308,0.0353,0.0375,0.0408,0.0475,0.0474,0.0538,0.0543,0.0564,0.0622,0.0513,0.0525,0.032,0.0216,0.0043,-0.0134,-0.0121,-0.03,-0.0344,-0.0304,-0.0303,-0.034,-0.0343,-0.0309,-0.0308,-0.0308,-0.0307,0,0.0358,0.0374,0.044,0.0482,0.0502,0.0552,0.0623,0.0677,0.068,0.0752,0.0751,0.0668,0.0537,0.0328,0.0108,-0.0057,-0.0239,-0.031,-0.0245,-0.0279,-0.0404,-0.0402,-0.0443,-0.0444,-0.0445,-0.0445,-0.0446,0,0.0388,0.0423,0.0495,0.0546,0.0567,0.0637,0.0695,0.0732,0.0805,0.0849,0.0897,0.0794,0.0748,0.042,0.0114,-0.0175,-0.0225,-0.0339,-0.0379,-0.0376,-0.0415,-0.0411,-0.0408,-0.0357,-0.0357,-0.0357,-0.0357,0,0.0444,0.0463,0.0517,0.0617,0.069,0.0782,0.0873,0.0948,0.1012,0.1067,0.1131,0.1099,0.0804,0.052,0.0119,-0.0078,-0.0291,-0.0346,-0.0353,-0.0324,-0.03,-0.0337,-0.0336,-0.0355,-0.0356,-0.0356,-0.0356,-0.0356,0.0484,0.0532,0.0603,0.0699,0.0794,0.0923,0.1006,0.1114,0.1235,0.1338,0.1308,0.1283,0.0954,0.0461,0.0092,-0.0289,-0.0277,-0.0412,-0.041,-0.0409,-0.0381,-0.0359,-0.042,-0.042,-0.0421,-0.0421,-0.0421,0,0.0541,0.06,0.0685,0.0804,0.0916,0.0964,0.1126,0.1211,0.1356,0.146,0.1506,0.1236,0.0919,0.0542,-0.0025,-0.0373,-0.04,-0.0472,-0.0434,-0.0432,-0.0431,-0.0403,-0.0449,-0.045,-0.0451,-0.0452,0,0,0.0575,0.0659,0.0696,0.0876,0.0979,0.1137,0.1237,0.1359,0.1462,0.1545,0.156,0.153,0.1079,0.0666,0.0192,-0.0136,-0.0206,-0.0193,-0.0129,-0.0027,-0.0022,-0.0349,-0.0297,0,0,0,0,0]}],[{"header":{"parameterUnit":"m.s-1","parameterCategory":2,"la1":30.2991,"la2":30.254,"lo1":-89.0895,"lo2":-89.0444,"dy":0.0017,"dx":0.0017,"nx":28,"ny":28,"refTime":"2024-06-21T03:00:00:Z","depth":"4","parameterNumber":2,"parameterNumberName":"U-component_of_CURRENTS"},"data":[0,0,0,0,0,0,0,0,0,0,0,0,0,0,0,0,0,0,0,0,0,0,0,0,0,0,0,0,0,0,0,0,0,0,0,0,0,0,0,0,0,0,0,0,0,0,0,0,0,0,0,0,0,0,0,0,0,0,0.1761,0.1761,0,0.1817,0.1817,0.1818,0.1901,0.1903,0.1904,0.1905,0.1985,0.1986,0.1987,0,0,0,0,0,0,0,0,0,0,0,0,0,0.1709,0.1709,0.1761,0.1761,0.1762,0.1817,0.1817,0.1818,0.1901,0.1903,0.1904,0.1906,0.1985,0.1986,0.1987,0,0,0,0,0,0,0,0,0,0,0,0,0,0.1746,0.171,0.1761,0.1809,0.1813,0.1816,0.1818,0.1819,0.1901,0.1903,0.1905,0.1907,0.1984,0.1986,0.1987,0.1956,0,0,0.1991,0.1992,0,0,0,0,0,0,0,0,0.1744,0.1748,0.1801,0.1805,0.181,0.1853,0.1828,0.1865,0.19,0.1869,0.1905,0.1908,0.194,0.1945,0.1954,0.196,0.1963,0.1991,0.1992,0.1993,0.1993,0,0,0,0,0,0,0,0.1741,0.1746,0.1785,0.1801,0.1807,0.1821,0.1829,0.1836,0.1895,0.1872,0.1878,0.1881,0.1944,0.1952,0.1956,0.1964,0.1991,0.1992,0.1993,0.1994,0.21,0.2102,0,0,0,0,0,0,0.173,0.1744,0.1783,0.1786,0.1779,0.182,0.1829,0.1838,0.1895,0.1904,0.1879,0.1884,0.1949,0.1954,0.1959,0.2066,0.1993,0.1994,0.1995,0.2098,0.2101,0.2103,0,0,0,0,0,0,0.1728,0.1733,0.1781,0.1764,0.1771,0.1819,0.1829,0.1838,0.1895,0.1899,0.191,0.1931,0.1951,0.1957,0.2012,0.2064,0.1994,0.1996,0.2096,0.2099,0.2102,0.2188,0,0,0,0,0,0,0.1727,0.1732,0.1758,0.1764,0.1772,0.1816,0.1827,0.1838,0.189,0.1899,0.1946,0.1953,0.1953,0.201,0.2014,0.2065,0.1997,0.2093,0.2097,0.2101,0.2183,0.2194,0.2203,0,0,0,0,0,0.1725,0.1748,0.1759,0.1765,0.1799,0.1817,0.1824,0.1864,0.1891,0.1922,0.1959,0.1954,0.2037,0.2013,0.2016,0.2069,0.2091,0.2096,0.21,0.2178,0.2192,0.2203,0,0,0,0,0,0,0.1743,0.1758,0.1771,0.1801,0.1822,0.1831,0.1868,0.1887,0.1939,0.1966,0.1972,0.1981,0.2055,0.2044,0.2017,0.2111,0.2066,0.2071,0.2124,0.2136,0.2147,0.216,0.1998,0,0,0,0,0,0.1753,0.1779,0.1789,0.1817,0.1834,0.1858,0.188,0.1905,0.1936,0.1965,0.1994,0.2029,0.2066,0.2089,0.2115,0.2154,0.2168,0.2192,0.2203,0.2211,0.2226,0.2282,0.2299,0.2118,0.2118,0.2118,0,0,0.1766,0.1779,0.1795,0.1823,0.1848,0.1879,0.188,0.1927,0.1965,0.1961,0.2043,0.2071,0.2087,0.2146,0.2177,0.2149,0.2274,0.2217,0.2225,0.2234,0.2289,0.2307,0.2322,0.2121,0.212,0.212,0,0,0.1786,0.182,0.1845,0.1871,0.1912,0.1926,0.1948,0.1984,0.2025,0.2082,0.2104,0.2164,0.2205,0.2235,0.225,0.2328,0.2332,0.2342,0.24,0.2455,0.247,0.2484,0.2541,0.2559,0.234,0.234,0.234,0,0.1803,0.1836,0.1856,0.189,0.1922,0.1952,0.1991,0.2027,0.208,0.2119,0.2127,0.2234,0.2248,0.2326,0.236,0.2353,0.2386,0.2351,0.2469,0.2483,0.2495,0.255,0.2569,0.2345,0.2344,0.2344,0.2343,0,0.1832,0.1877,0.19,0.1952,0.1988,0.2032,0.2072,0.213,0.2179,0.221,0.2313,0.2342,0.2408,0.2423,0.2416,0.2519,0.2515,0.2481,0.2438,0.2519,0.2571,0.2589,0.2351,0.235,0.2348,0.2347,0,0,0.1818,0.1903,0.1916,0.1956,0.2032,0.2057,0.2139,0.2208,0.2274,0.234,0.2426,0.2498,0.2532,0.2553,0.2565,0.2607,0.2726,0.259,0.2591,0.2647,0.2867,0.2699,0.2702,0.2718,0.2722,0.2724,0.2874,0,0.1839,0.1904,0.1949,0.203,0.2069,0.2138,0.2205,0.2279,0.2348,0.2439,0.2498,0.2586,0.2575,0.2628,0.2676,0.2718,0.2776,0.269,0.2779,0.2782,0.2622,0.2717,0.2735,0.2887,0.2891,0.2894,0.2896,0,0.185,0.1895,0.1971,0.2072,0.21,0.2162,0.2287,0.2354,0.2478,0.2536,0.2639,0.2688,0.2799,0.276,0.2896,0.2848,0.2878,0.2893,0.2898,0.2721,0.2646,0.2785,0.2928,0.2926,0.2923,0.2921,0.2919,0,0.1809,0.1912,0.1975,0.2011,0.2126,0.2195,0.2273,0.2394,0.2465,0.2618,0.2689,0.2813,0.2898,0.2961,0.3015,0.2976,0.314,0.3079,0.2961,0.295,0.3017,0.3001,0.3175,0.3175,0.3175,0.3174,0.3174,0,0.1795,0.1851,0.1971,0.2006,0.2095,0.2194,0.231,0.24,0.2543,0.2627,0.2751,0.2834,0.2955,0.3052,0.3075,0.3085,0.3201,0.2998,0.2981,0.3052,0.3037,0.3031,0.3013,0.318,0.3179,0.3178,0.3177,0,0.1727,0.1811,0.1888,0.2027,0.2076,0.2146,0.2315,0.2389,0.2544,0.2663,0.2722,0.2896,0.3023,0.3118,0.323,0.3149,0.3174,0.3146,0.3253,0.3236,0.2936,0.292,0.3027,0.3022,0.3018,0.3015,0.3012,0,0.1688,0.1725,0.1877,0.1924,0.1995,0.2116,0.2191,0.2366,0.2441,0.2672,0.2712,0.2905,0.2999,0.3035,0.3145,0.3199,0.3152,0.3145,0.3002,0.295,0.2924,0.2914,0.2904,0.3006,0.3005,0.3004,0.3003,0,0.1607,0.1684,0.1747,0.1842,0.1934,0.2015,0.2144,0.2182,0.2379,0.2546,0.2636,0.271,0.2851,0.2935,0.3006,0.3027,0.3131,0.3103,0.3109,0.2975,0.2926,0.2902,0.2897,0.2989,0.2991,0.2993,0.2993,0,0.1546,0.1567,0.1662,0.1733,0.1836,0.1874,0.1962,0.2057,0.2154,0.24,0.2435,0.2639,0.2819,0.2851,0.2918,0.2931,0.2874,0.2753,0.2776,0.2793,0.2645,0.2544,0.2498,0,0,0,0,0,0.1465,0.1476,0.1537,0.1604,0.1702,0.1762,0.1905,0.1999,0.2194,0.2193,0.2302,0.2418,0.2521,0.2641,0.2609,0.2827,0.2888,0.2777,0.2761,0.2914,0.293,0.2776,0,0,0,0,0,0,0.1408,0.1458,0.1486,0.148,0.1506,0.1592,0.1677,0.1811,0.1824,0.2032,0.2109,0.227,0.2419,0.2514,0.2562,0.2598,0.2537,0.2915,0.2908,0.2905,0.2919,0.2932,0.2779,0,0,0,0,0]},{"header":{"parameterUnit":"m.s-1","parameterCategory":2,"la1":30.2991,"la2":30.254,"lo1":-89.0895,"lo2":-89.0444,"dy":0.0017,"dx":0.0017,"nx":28,"ny":28,"refTime":"2024-06-21T03:00:00:Z","depth":"4","parameterNumber":3,"parameterNumberName":"V-component_of_CURRENTS"},"data":[0,0,0,0,0,0,0,0,0,0,0,0,0,0,0,0,0,0,0,0,0,0,0,0,0,0,0,0,0,0,0,0,0,0,0,0,0,0,0,0,0,0,0,0,0,0,0,0,0,0,0,0,0,0,0,0,0,0,0.0094,0.0094,0,0.0056,0.0056,0.0055,0.0019,0.0018,0.0018,0.0018,-0.005,-0.0051,-0.0053,0,0,0,0,0,0,0,0,0,0,0,0,0,0.0117,0.0117,0.0094,0.0094,0.0093,0.0056,0.0056,0.0055,0.0019,0.0018,0.0018,0.0017,-0.005,-0.0051,-0.0053,0,0,0,0,0,0,0,0,0,0,0,0,0,0.0096,0.0117,0.0094,0.0071,0.0069,0.0056,0.0056,0.0055,0.0019,0.0018,0.0018,0.0017,-0.0049,-0.0051,-0.0053,-0.0054,0,0,-0.006,-0.0061,0,0,0,0,0,0,0,0,0.0097,0.0095,0.0075,0.0073,0.007,0.0042,0.0039,0.0017,0.0019,0.0037,0.0018,0.0017,-0.0021,-0.0026,-0.0032,-0.0057,-0.006,-0.006,-0.0061,-0.0062,-0.0063,0,0,0,0,0,0,0,0.0098,0.0096,0.0078,0.0075,0.0072,0.0057,0.0053,0.0035,0.0011,0.0036,0.0033,0.003,-0.0023,-0.003,-0.0034,-0.0061,-0.006,-0.0062,-0.0063,-0.0064,-0.0108,-0.0108,0,0,0,0,0,0,0.0106,0.0098,0.008,0.0077,0.0083,0.0057,0.0053,0.0051,0.0012,0.0005,0.0031,0.0029,-0.0026,-0.0031,-0.0036,-0.0044,-0.0062,-0.0064,-0.0065,-0.0108,-0.0108,-0.0108,0,0,0,0,0,0,0.0107,0.0105,0.0081,0.0087,0.0083,0.0057,0.0056,0.0051,0.0039,0.0008,0.0001,0.0023,-0.0026,-0.0033,-0.0058,-0.0047,-0.0065,-0.0067,-0.0108,-0.0108,-0.0108,-0.0057,0,0,0,0,0,0,0.0108,0.0105,0.0105,0.0088,0.0083,0.0076,0.0056,0.0051,0.0039,0.0035,-0.0,-0.0007,-0.0027,-0.0054,-0.006,-0.005,-0.0069,-0.0108,-0.0108,-0.0108,-0.0059,-0.0055,-0.0052,0,0,0,0,0,0.0109,0.0115,0.0106,0.0103,0.0084,0.0076,0.0072,0.0051,0.0039,0.0038,0.001,-0.0006,-0.0057,-0.0056,-0.0063,-0.0053,-0.0109,-0.0108,-0.0108,-0.006,-0.0056,-0.0052,0,0,0,0,0,0,0.0125,0.0111,0.0101,0.0102,0.009,0.007,0.0071,0.0053,0.0031,0.0027,-0.0007,-0.0015,-0.0032,-0.0052,-0.005,-0.0066,-0.0084,-0.0085,-0.0046,-0.0042,-0.0038,-0.0026,-0.007,0,0,0,0,0,0.0129,0.0131,0.0113,0.0115,0.0112,0.0091,0.0084,0.007,0.0049,0.0039,0.0014,-0.0013,-0.0035,-0.0046,-0.0068,-0.0076,-0.0109,-0.0075,-0.0071,-0.0068,-0.0063,-0.0109,-0.0109,-0.0107,-0.0107,-0.0107,0,0,0.0136,0.013,0.013,0.0119,0.0111,0.0113,0.0085,0.0081,0.0081,0.0035,0.0028,-0.0003,-0.0036,-0.0046,-0.0055,-0.0062,-0.0087,-0.0068,-0.0065,-0.0061,-0.0109,-0.0109,-0.0109,-0.0107,-0.0107,-0.0107,0,0,0.0156,0.0148,0.0155,0.015,0.0141,0.013,0.0129,0.0109,0.0099,0.0085,0.0053,0.0026,-0.0003,-0.0025,-0.004,-0.0031,-0.0069,-0.0035,-0.0004,-0.0049,-0.005,-0.005,-0.0094,-0.0099,-0.0031,-0.0031,-0.0031,0,0.0164,0.0172,0.0156,0.0165,0.0168,0.014,0.0151,0.014,0.0113,0.0108,0.009,0.0038,0.0008,-0.0009,-0.0005,-0.0023,-0.0055,-0.0015,-0.0044,-0.0046,-0.0047,-0.0092,-0.0098,-0.0028,-0.0028,-0.0029,-0.0029,0,0.0187,0.0196,0.0205,0.0208,0.0207,0.0214,0.02,0.0195,0.0178,0.016,0.0136,0.0089,0.0059,0.0045,0.0023,0.0002,-0.0019,-0.0036,-0.0052,-0.0044,-0.0092,-0.01,-0.0025,-0.0025,-0.0026,-0.0027,0,0,0.0198,0.0217,0.0219,0.0236,0.0232,0.0237,0.0244,0.0241,0.0247,0.0209,0.0206,0.0158,0.0127,0.0108,0.0071,0.0033,-0.001,0.0,-0.0003,-0.0038,-0.011,-0.0105,-0.0113,-0.0033,-0.0034,-0.0035,-0.0139,0,0.0221,0.0254,0.0253,0.0287,0.0305,0.0294,0.0307,0.0299,0.0282,0.0272,0.0218,0.0199,0.0154,0.014,0.0094,0.002,-0.0027,0.002,-0.0116,-0.012,-0.0113,-0.012,-0.0038,-0.0145,-0.0147,-0.0148,-0.0149,0,0.024,0.0263,0.0302,0.034,0.0347,0.0362,0.0381,0.0388,0.0366,0.0353,0.0315,0.027,0.0215,0.0172,0.0043,0.0075,-0.0012,-0.0077,-0.0083,-0.0099,-0.0128,-0.0156,-0.0163,-0.0162,-0.0161,-0.016,-0.0159,0,0.026,0.0299,0.0336,0.0347,0.0379,0.0398,0.0414,0.041,0.0435,0.0402,0.0407,0.0323,0.029,0.0171,0.004,0.0038,-0.0109,-0.0131,-0.0214,-0.0215,-0.0212,-0.021,-0.0233,-0.0233,-0.0233,-0.0233,-0.0232,0,0.0285,0.0316,0.0353,0.0374,0.0427,0.0433,0.048,0.0484,0.0498,0.0531,0.0452,0.0449,0.0289,0.0189,0.0055,-0.0096,-0.0104,-0.021,-0.0241,-0.0188,-0.0182,-0.0217,-0.0214,-0.0237,-0.0236,-0.0235,-0.0234,0,0.0298,0.0322,0.0373,0.0419,0.0439,0.0476,0.0543,0.058,0.0582,0.062,0.0618,0.0543,0.0416,0.0246,0.0051,-0.0063,-0.0217,-0.0275,-0.0202,-0.0227,-0.0301,-0.0294,-0.0377,-0.0377,-0.0378,-0.0378,-0.0379,0,0.0309,0.0336,0.0406,0.0448,0.0473,0.0531,0.0582,0.0618,0.0662,0.0681,0.0704,0.0605,0.0528,0.0267,0.0073,-0.0189,-0.0229,-0.0322,-0.0317,-0.0293,-0.0315,-0.0307,-0.03,-0.038,-0.038,-0.038,-0.038,0,0.033,0.0355,0.0398,0.0482,0.0546,0.0621,0.0692,0.0737,0.0782,0.0787,0.0783,0.0652,0.0507,0.029,0.0083,-0.0107,-0.0267,-0.0329,-0.0329,-0.0326,-0.0298,-0.0317,-0.0309,-0.0382,-0.0382,-0.0382,-0.0381,0,0.0346,0.0379,0.044,0.0515,0.0603,0.069,0.0725,0.0784,0.0832,0.0855,0.0849,0.0697,0.0606,0.0332,0.0145,-0.0042,-0.0096,-0.017,-0.018,-0.018,-0.0094,-0.0028,-0.0055,0,0,0,0,0,0.036,0.0401,0.0472,0.0558,0.0648,0.0699,0.0795,0.0825,0.0869,0.0883,0.0875,0.0745,0.0487,0.0373,0.0189,0.0109,-0.0148,-0.0117,-0.0243,-0.0393,-0.039,-0.0322,0,0,0,0,0,0,0.0371,0.0433,0.0468,0.0582,0.0646,0.075,0.0815,0.0847,0.0854,0.087,0.0741,0.0683,0.0431,0.0594,0.0181,0.0124,0.0014,-0.0236,-0.0241,-0.0394,-0.0392,-0.039,-0.0319,0,0,0,0,0]}]]